Regional Weather Roundup
Issued by NWS

Home | Current Version | Previous Version | Text Only | Print | Product List | Glossary Off
Versions: 1 2 3 4 5 6 7 8 9 10 11 12 13 14 15 16 17 18 19 20 21 22 23 24 25 26 27

000
ASUS45 KSLC 260810
RWRUT

UTAH REGIONAL WEATHER ROUNDUP
NATIONAL WEATHER SERVICE SALT LAKE CITY UT
200 AM MDT THU APR 26 2018

UTZ001>011-023>025-260900-

NORTHERN UTAH

CITY           SKY/WX    TMP DP  RH WIND       PRES   REMARKS
BRIGHAM CITY   CLEAR     48  35  59 CALM      30.16R
HILL AFB       CLEAR     51  25  36 E12       30.15S
LOGAN          CLEAR     42  34  73 CALM      30.17R
OGDEN          CLEAR     47  27  45 S5        30.14S
SALT LAKE CITY PTCLDY    52  38  58 SW6       30.14R
TOOELE VALLEY  CLEAR     41  32  70 S9        30.16R
WENDOVER       CLEAR     62  23  22 N8        30.15S
HEBER CITY       N/A     37  25  60 CALM      30.19S
WEST JORDAN    CLEAR     55  32  42 W9        30.16S

$$

UTZ011>015-024>027-260900-

CENTRAL/NORTHEAST UTAH

CITY           SKY/WX    TMP DP  RH WIND       PRES   REMARKS
PROVO AIRPORT  CLEAR     50  37  61 CALM      30.16R
MOAB/CANYONLAN PTCLDY    52   9  17 SW6       30.06R
DELTA          CLEAR     46  32  57 NE6       30.13S
PRICE          PTCLDY    54  19  25 N10       30.14R
RICHFIELD      CLEAR     46  25  42 CALM      30.16S
ROOSEVELT      PTCLDY    50  23  34 W5        30.17R
VERNAL         PTCLDY    60  23  24 N9        30.15R

$$

UTZ013>016-019>022-027-260900-

SOUTHERN UTAH

CITY           SKY/WX    TMP DP  RH WIND       PRES   REMARKS
BRYCE CANYON   CLEAR     36  20  52 CALM      30.26S
CEDAR CITY     CLEAR     50  29  44 E8        30.13S
MILFORD        CLEAR     48  30  49 CALM      30.12S
ST GEORGE      SUNNY     67  26  21 E7        29.98S
HANKSVILLE     PTCLDY    45   3  18 CALM      30.10R
KANAB          CLEAR     46  23  39 NE6       30.14F
BLANDING         N/A     46  14  27 N10       30.19F

$$

REGIONAL REPORTS     COLORADO/ARIZONA

CITY           SKY/WX    TMP DP  RH WIND       PRES   REMARKS
CRAIG, CO      PTCLDY    44  23  43 W7        30.17R
GRAND JUNCTION PTCLDY    47  13  25 CALM      30.09R
RIFLE, CO      MOCLDY    43  27  53 S3        30.13R
MONTROSE, CO   MOCLDY    42  16  34 SE6       30.14S
CORTEZ, CO     CLEAR     34   5  29 NE7       30.14F WCI  28
COLORADO CITY    N/A     45  28  53 S3        30.12S
PAGE, AZ       CLEAR     61  23  23 CALM      30.05S
GRAND CANYON   CLEAR     36  14  40 CALM      30.21S HAZE
KINGMAN, AZ    CLEAR     59  18  20 CALM      30.00F
FLAGSTAFF, AZ  CLEAR     37  17  44 CALM      30.22F

$$

REGIONAL REPORTS    NEVADA/IDAHO/WYOMING

CITY           SKY/WX    TMP DP  RH WIND       PRES   REMARKS
LAS VEGAS, NV  MOCLDY    77  24  14 S3        29.90S
ELY, NY        CLEAR     40  20  44 S13       30.21S WCI  32
ELKO, NV       CLEAR     47  25  42 E7        30.19S
POCATELLO, ID  CLEAR     46  28  49 SW6       30.18R
BURLEY, ID     CLEAR     43  25  49 SW5       30.14R
FORT BRIDGER,    N/A     41  20  43 W8        30.29S
EVANSTON, WY   CLEAR     41  21  44 E6        30.26R
ROCK SPRINGS,  CLEAR     40  20  44 NE9       30.25R WCI  34
KEMMERER, WY   CLEAR     39  27  60 CALM      30.27R

$$




USA.gov is the U.S. government's official web portal to all federal, state and local government web resources and services.